Date,TemperatureHighF,TemperatureAvgF,TemperatureLowF,DewpointHighF,DewpointAvgF,DewpointLowF,HumidityHigh,HumidityAvg,HumidityLow,PressureMaxIn,PressureMinIn,WindSpeedMaxMPH,WindSpeedAvgMPH,GustSpeedMaxMPH,PrecipitationSumIn
2013-1-1,38,36,34,26,18,9,66,49,34,0.00,40.00,31,20,47,0.00
2013-1-2,45,39,34,11,7,3,36,26,18,0.00,40.00,35,24,51,0.00
2013-1-3,46,42,38,10,4,-4,27,20,14,0.00,40.00,27,17,38,0.00
2013-1-4,50,42,37,1,-2,-7,20,16,12,0.00,40.00,19,13,30,0.00
2013-1-5,55,46,41,4,-4,-9,15,12,9,0.00,40.00,16,8,21,0.00
2013-1-6,43,37,33,38,25,0,100,67,17,0.00,40.00,20,11,29,0.00
2013-1-7,48,40,32,35,23,10,100,57,21,0.00,40.00,15,8,26,0.00
2013-1-8,61,54,45,25,16,3,36,23,15,0.00,40.00,15,8,22,0.00
2013-1-9,64,53,45,41,27,22,74,39,21,0.00,40.00,19,10,23,0.00
2013-1-10,45,36,30,39,32,25,100,89,47,0.00,40.00,23,16,37,0.00
2013-1-11,36,29,25,26,20,9,95,70,34,0.00,40.00,19,9,27,0.00
2013-1-12,38,31,25,27,17,5,100,60,32,0.00,40.00,14,6,21,0.00
2013-1-13,39,31,26,24,13,4,76,48,30,0.00,40.00,16,9,22,0.00
2013-1-14,36,28,22,12,-2,-12,52,28,12,0.00,40.00,24,15,35,0.00
2013-1-15,40,32,25,11,2,-7,34,28,23,0.00,40.00,32,20,44,0.00
2013-1-16,47,43,37,16,14,11,37,31,26,0.00,40.00,37,23,53,0.00
2013-1-17,52,48,45,13,10,9,26,22,18,0.00,40.00,35,27,49,0.00
2013-1-18,55,50,47,14,11,9,22,20,18,0.00,40.00,29,22,39,0.00
2013-1-19,57,51,48,12,9,4,22,18,15,0.00,40.00,23,18,35,0.00
2013-1-20,59,53,49,6,4,-1,16,13,11,0.00,40.00,19,13,27,0.00
2013-1-21,59,54,50,3,0,-3,12,11,9,0.00,40.00,23,16,34,0.00
2013-1-22,65,57,52,21,4,-3,24,12,9,0.00,40.00,22,13,31,0.00
2013-1-23,66,59,54,32,25,14,37,27,19,0.00,40.00,14,8,21,0.00
2013-1-24,55,51,46,53,44,27,100,78,35,0.00,40.00,20,6,27,0.00
2013-1-25,52,49,46,49,45,37,100,89,65,0.00,40.00,20,12,28,0.00
2013-1-26,49,47,45,49,47,44,100,99,82,0.00,40.00,12,7,18,0.00
2013-1-27,45,40,32,45,40,32,100,100,98,0.00,40.00,19,12,32,0.00
2013-1-28,39,34,30,33,30,21,100,86,49,0.00,40.00,16,12,25,0.00
2013-1-29,48,38,30,39,32,24,100,80,47,0.00,40.00,16,9,24,0.00
2013-1-30,53,47,42,33,25,21,63,43,31,0.00,40.00,30,15,43,0.00
2013-1-31,56,52,48,28,26,25,42,36,33,0.00,40.00,24,17,36,0.00
2013-2-1,62,55,50,27,24,21,37,29,23,0.00,40.00,16,11,22,0.00
2013-2-2,62,56,53,25,20,15,29,25,19,0.00,40.00,19,12,27,0.00
2013-2-3,59,53,49,42,37,22,76,54,25,0.00,40.00,12,6,20,0.00
2013-2-4,60,54,47,42,30,23,66,42,24,0.00,40.00,14,6,23,0.00
2013-2-5,62,52,41,43,31,21,100,48,27,0.00,40.00,11,6,16,0.00
2013-2-6,54,46,34,40,33,19,100,65,27,0.00,40.00,10,5,14,0.00
2013-2-7,58,49,36,43,27,14,100,49,19,0.00,40.00,15,6,23,0.00
2013-2-8,37,32,29,35,32,29,100,99,80,0.00,40.00,20,15,32,0.00
2013-2-9,35,31,28,35,31,28,100,99,94,0.00,40.00,16,10,24,0.00
2013-2-10,36,32,28,34,30,27,100,92,72,0.00,40.00,13,8,20,0.00
2013-2-11,40,34,29,31,22,1,100,65,25,0.00,40.00,12,6,18,0.00
2013-2-12,48,40,33,9,5,1,31,24,17,0.00,40.00,14,8,20,0.00
2013-2-13,58,48,37,29,15,6,46,27,18,0.00,40.00,20,8,28,0.00
2013-2-14,56,52,46,21,19,16,30,27,24,0.00,40.00,28,14,40,0.00
2013-2-15,55,51,48,19,13,7,30,23,16,0.00,40.00,44,31,59,0.00
2013-2-16,60,54,50,13,8,-1,20,16,10,0.00,40.00,33,19,44,0.00
2013-2-17,57,50,43,29,15,7,42,26,16,0.00,40.00,15,7,23,0.00
2013-2-18,60,48,36,41,23,6,100,46,12,0.00,40.00,11,6,18,0.00
2013-2-19,36,34,31,36,33,30,100,100,88,0.00,40.00,22,12,33,0.00
2013-2-20,35,30,26,32,30,26,100,97,80,0.00,40.00,27,15,38,0.00
2013-2-21,39,33,27,35,30,19,100,92,54,0.00,40.00,11,5,16,0.00
2013-2-22,51,42,33,28,15,7,64,34,24,0.00,40.00,10,5,19,0.00
2013-2-23,53,44,36,31,23,15,78,44,29,0.00,40.00,16,8,24,0.00
2013-2-24,44,39,35,24,4,-4,54,24,15,0.00,40.00,29,16,44,0.00
2013-2-25,56,43,35,15,6,-2,38,22,13,0.00,40.00,15,9,20,0.00
2013-2-26,52,46,39,13,8,-10,31,21,8,0.00,40.00,26,13,37,0.00
2013-2-27,50,44,40,9,4,-3,26,19,13,0.00,40.00,23,16,35,0.00
2013-2-28,55,50,44,6,2,-2,17,13,11,0.00,40.00,29,19,44,0.00
2013-3-1,62,56,51,16,10,4,20,16,13,0.00,40.00,29,21,44,0.00
2013-3-2,72,61,52,23,17,12,27,19,10,0.00,40.00,20,11,27,0.00
2013-3-3,63,54,43,30,18,10,60,27,15,0.00,40.00,19,11,26,0.00
2013-3-4,58,49,38,45,38,30,100,69,40,0.00,40.00,17,8,25,0.00
2013-3-5,61,53,39,42,33,28,100,49,29,0.00,40.00,13,6,21,0.00
2013-3-6,56,43,36,39,37,34,100,83,44,0.00,40.00,15,8,23,0.00
2013-3-7,46,41,38,42,38,34,100,90,68,0.00,40.00,17,9,25,0.00
2013-3-8,39,33,31,39,33,31,100,100,96,0.00,40.00,17,11,27,0.00
2013-3-9,43,37,33,39,35,27,100,93,53,0.00,40.00,18,10,28,0.00
2013-3-10,56,49,41,28,19,12,58,32,19,0.00,40.00,17,9,27,0.00
2013-3-11,65,56,45,32,15,5,32,19,15,0.00,40.00,15,8,23,0.00
2013-3-12,68,61,54,22,16,8,26,17,14,0.00,40.00,24,12,35,0.00
2013-3-13,72,65,59,23,20,18,23,18,13,0.00,40.00,21,12,30,0.00
2013-3-14,76,67,60,41,24,20,40,20,13,0.00,40.00,26,10,35,0.00
2013-3-15,76,68,56,35,28,18,42,24,14,0.00,40.00,12,7,19,0.00
2013-3-16,70,59,50,44,23,7,81,28,13,0.00,40.00,16,8,23,0.00
2013-3-17,69,57,47,49,33,22,99,45,20,0.00,40.00,11,6,19,0.00
2013-3-18,64,54,46,46,35,11,85,51,16,0.00,40.00,10,6,17,0.00
2013-3-19,66,55,47,42,32,25,79,44,24,0.00,40.00,22,9,33,0.00
2013-3-20,67,57,46,37,32,27,64,41,22,0.00,40.00,17,9,28,0.00
2013-3-21,60,50,43,46,38,31,100,66,44,0.00,40.00,12,7,17,0.00
2013-3-22,65,49,35,47,40,20,100,76,18,0.00,40.00,12,7,17,0.00
2013-3-23,62,55,45,35,15,-3,65,22,10,0.00,40.00,23,10,32,0.00
2013-3-24,66,57,50,43,24,12,70,30,14,0.00,40.00,13,6,20,0.00
2013-3-25,72,61,55,41,27,11,56,29,16,0.00,40.00,11,5,18,0.00
2013-3-26,67,57,49,35,27,16,48,32,15,0.00,40.00,13,7,20,0.00
2013-3-27,63,53,47,37,28,16,67,38,25,0.00,40.00,15,8,24,0.00
2013-3-28,68,57,46,44,36,26,78,48,27,0.00,40.00,14,6,20,0.00
2013-3-29,71,62,51,48,34,24,90,39,23,0.00,40.00,11,5,18,0.00
2013-3-30,67,58,49,48,38,-100,94,53,23,0.00,40.00,14,7,21,0.00
2013-3-31,59,50,43,46,40,28,100,70,42,0.00,40.00,17,10,26,0.00
2013-4-1,56,46,39,42,38,27,100,78,38,0.00,40.00,20,13,28,0.00
2013-4-2,64,51,42,47,42,32,100,75,40,0.00,40.00,17,9,27,0.00
2013-4-3,72,63,54,41,30,22,49,29,15,0.00,40.00,13,7,20,0.00
2013-4-4,68,61,51,41,29,20,69,32,20,0.00,40.00,15,7,22,0.00
2013-4-5,63,53,46,48,42,36,93,68,36,0.00,40.00,17,11,25,0.00
2013-4-6,65,52,42,49,45,41,100,81,47,0.00,40.00,15,8,21,0.00
2013-4-7,67,54,45,50,46,41,100,77,42,0.00,40.00,11,7,18,0.00
2013-4-8,47,40,36,47,40,36,100,99,78,0.00,40.00,25,15,37,0.00
2013-4-9,58,45,35,39,32,22,100,66,30,0.00,40.00,15,9,26,0.00
2013-4-10,66,55,44,26,18,10,47,24,11,0.00,40.00,16,9,29,0.00
2013-4-11,68,59,48,40,25,6,60,30,13,0.00,40.00,15,9,25,0.00
2013-4-12,70,62,51,35,25,18,54,28,14,0.00,40.00,21,8,28,0.00
2013-4-13,70,62,48,45,32,18,78,37,17,0.00,40.00,16,8,24,0.00
2013-4-14,60,50,42,45,40,26,100,70,42,0.00,40.00,15,9,22,0.00
2013-4-15,46,42,39,45,42,39,100,99,90,0.00,40.00,16,11,24,0.00
2013-4-16,47,39,34,39,34,31,100,86,55,0.00,40.00,20,14,31,0.00
2013-4-17,57,45,33,36,18,1,100,47,12,0.00,40.00,15,10,24,0.00
2013-4-18,57,50,44,14,6,0,24,17,13,0.00,40.00,25,14,37,0.00
2013-4-19,68,58,48,16,6,0,20,12,8,0.00,40.00,22,14,34,0.00
2013-4-20,74,65,52,29,16,5,29,16,10,0.00,40.00,16,8,26,0.00
2013-4-21,78,70,61,34,23,13,32,18,11,0.00,40.00,13,6,23,0.00
2013-4-22,74,63,53,45,28,13,72,30,13,0.00,40.00,14,7,20,0.00
2013-4-23,71,62,51,38,24,17,60,25,14,0.00,40.00,24,11,35,0.00
2013-4-24,71,58,44,49,36,17,100,55,13,0.00,40.00,15,7,22,0.00
2013-4-25,63,49,41,46,42,39,100,81,46,0.00,40.00,16,10,23,0.00
2013-4-26,75,63,46,45,32,18,93,37,16,0.00,40.00,15,6,20,0.00
2013-4-27,79,71,63,35,20,9,30,16,7,0.00,40.00,16,8,23,0.00
2013-4-28,81,73,65,28,20,9,21,13,7,0.00,40.00,18,10,27,0.00
2013-4-29,80,70,61,39,28,11,44,22,14,0.00,40.00,16,8,22,0.00
2013-4-30,72,63,52,47,34,9,81,39,13,0.00,40.00,13,9,21,0.00
2013-5-1,74,64,49,45,26,4,78,31,8,0.00,40.00,26,13,36,0.00
2013-5-2,69,63,57,7,0,-5,10,8,6,0.00,40.00,29,21,43,0.00
2013-5-3,76,67,61,24,9,-3,21,11,7,0.00,40.00,21,11,30,0.00
2013-5-4,73,63,48,34,16,5,57,18,8,0.00,40.00,16,8,26,0.00
2013-5-5,58,49,44,48,40,30,100,74,48,0.00,40.00,15,9,25,0.00
2013-5-6,48,46,44,48,46,44,100,100,100,0.00,40.00,19,13,28,0.00
2013-5-7,51,45,42,47,43,40,100,93,70,0.00,40.00,19,13,32,0.00
2013-5-8,57,46,39,47,44,37,100,91,66,0.00,40.00,13,8,20,0.00
2013-5-9,62,50,42,51,46,42,100,88,60,0.00,40.00,14,7,20,0.00
2013-5-10,73,62,45,49,38,-100,100,49,21,0.00,40.00,15,7,22,0.00
2013-5-11,79,72,62,42,30,-100,48,23,14,0.00,40.00,20,9,29,0.00
2013-5-12,82,77,70,30,25,22,21,15,11,0.00,40.00,15,8,27,0.00
2013-5-13,88,80,73,33,26,21,20,14,10,0.00,40.00,16,6,25,0.00
2013-5-14,84,72,59,35,26,14,37,19,9,0.00,40.00,17,10,26,0.00
2013-5-15,74,63,54,46,30,16,63,31,18,0.00,40.00,16,9,24,0.00
2013-5-16,74,58,51,45,20,-100,79,39,10,0.00,40.00,14,8,21,0.00
2013-5-17,66,54,47,48,41,-100,95,68,44,0.00,40.00,17,10,24,0.00
2013-5-18,69,55,45,49,46,42,100,75,40,0.00,40.00,15,9,23,0.00
2013-5-19,76,62,49,50,45,39,93,58,29,0.00,40.00,11,6,20,0.00
2013-5-20,79,70,59,47,31,21,61,27,13,0.00,40.00,23,10,34,0.00
2013-5-21,80,72,60,48,32,17,59,26,13,0.00,40.00,14,8,23,0.00
2013-5-22,73,62,47,43,29,9,80,32,9,0.00,40.00,15,10,26,0.00
2013-5-23,68,54,39,45,34,12,100,53,14,0.00,40.00,16,9,24,0.00
2013-5-24,71,58,46,43,30,10,87,41,12,0.00,40.00,13,7,19,0.00
2013-5-25,70,59,50,45,22,-11,76,29,6,0.00,40.00,13,8,20,0.00
2013-5-26,68,56,47,43,35,23,81,46,27,0.00,40.00,14,9,22,0.00
2013-5-27,72,59,49,48,39,29,84,50,28,0.00,40.00,15,9,23,0.00
2013-5-28,69,58,48,53,44,37,100,62,40,0.00,40.00,20,12,28,0.00
2013-5-29,80,66,53,49,41,34,82,43,20,0.00,40.00,19,8,26,0.00
2013-5-30,80,68,54,49,43,35,80,43,24,0.00,40.00,11,6,19,0.00
2013-5-31,84,72,59,52,39,27,64,33,14,0.00,40.00,15,6,23,0.00
2013-6-1,89,79,71,48,38,27,42,24,11,0.00,40.00,22,10,30,0.00
2013-6-2,84,76,64,48,30,21,53,21,12,0.00,40.00,13,7,19,0.00
2013-6-3,79,69,61,51,34,21,69,30,16,0.00,40.00,11,6,20,0.00
2013-6-4,78,68,59,49,27,6,65,25,8,0.00,40.00,12,6,19,0.00
2013-6-5,84,70,60,51,30,5,70,26,9,0.00,40.00,12,6,18,0.00
2013-6-6,85,71,59,51,38,22,68,33,16,0.00,40.00,12,6,18,0.00
2013-6-7,88,75,62,53,39,9,58,31,8,0.00,40.00,12,6,20,0.00
2013-6-8,89,77,66,52,39,19,60,28,10,0.00,40.00,13,5,18,0.00
2013-6-9,85,77,68,30,17,-1,23,11,4,0.00,40.00,12,6,20,0.00
2013-6-10,79,73,65,45,28,7,48,20,8,0.00,40.00,15,10,24,0.00
2013-6-11,88,77,68,53,30,13,56,21,9,0.00,40.00,12,6,18,0.00
2013-6-12,82,74,65,45,36,26,42,26,13,0.00,40.00,13,7,18,0.00
2013-6-13,85,76,63,48,30,5,55,22,8,0.00,40.00,14,9,22,0.00
2013-6-14,83,74,62,45,30,9,51,23,9,0.00,40.00,11,7,19,0.00
2013-6-15,80,72,62,42,20,5,47,17,6,0.00,40.00,13,8,22,0.00
2013-6-16,82,74,62,47,23,-13,58,21,4,0.00,40.00,12,8,20,0.00
2013-6-17,84,75,61,43,29,22,45,21,11,0.00,40.00,13,9,21,0.00
2013-6-18,82,73,61,45,30,15,53,22,13,0.00,40.00,14,10,23,0.00
2013-6-19,80,70,57,44,28,16,55,23,11,0.00,40.00,15,10,22,0.00
2013-6-20,82,70,59,43,24,18,46,19,10,0.00,40.00,13,8,20,0.00
2013-6-21,80,76,72,39,35,25,27,23,13,0.00,40.00,13,12,18,0.00
2013-6-22,82,73,62,45,35,22,51,27,13,0.00,40.00,11,8,19,0.00
2013-6-23,77,69,56,48,38,29,68,35,22,0.00,40.00,14,9,22,0.00
2013-6-24,74,65,54,49,39,21,76,44,15,0.00,40.00,17,11,26,0.00
2013-6-25,83,67,54,55,49,44,80,56,28,0.00,40.00,17,8,25,0.00
2013-6-26,90,79,62,54,49,45,74,39,22,0.00,40.00,11,6,19,0.00
2013-6-27,92,83,70,53,45,38,54,29,16,0.00,40.00,12,7,24,0.00
2013-6-28,95,87,70,49,36,24,46,18,11,0.00,40.00,15,10,23,0.00
2013-6-29,99,91,79,47,37,24,21,16,11,0.00,40.00,15,10,23,0.00
2013-6-30,100,91,79,48,40,28,33,18,9,0.00,40.00,13,8,20,0.00
2013-7-1,92,85,76,47,42,38,34,23,17,0.00,40.00,13,8,19,0.00
2013-7-2,93,86,79,46,40,37,25,20,15,0.00,40.00,16,10,24,0.00
2013-7-3,91,82,74,45,38,34,29,21,14,0.00,40.00,16,13,23,0.00
2013-7-4,94,81,68,46,37,28,34,22,12,0.00,40.00,15,9,24,0.00
2013-7-5,91,80,67,54,44,34,63,31,14,0.00,40.00,13,7,19,0.00
2013-7-6,89,76,66,57,52,46,72,47,24,0.00,40.00,14,6,21,0.00
2013-7-7,92,85,67,56,44,39,67,26,17,0.00,40.00,13,8,21,0.00
2013-7-8,94,86,82,37,29,-100,18,14,10,0.00,40.00,13,8,22,0.00
2013-7-9,93,85,71,51,44,34,49,26,14,0.00,40.00,13,8,22,0.00
2013-7-10,82,71,66,55,46,-100,60,42,31,0.00,40.00,10,5,14,0.00
2013-7-11,74,68,63,60,55,46,77,62,46,0.00,40.00,8,4,13,0.00
2013-7-12,84,73,61,60,55,48,94,58,30,0.00,40.00,15,6,23,0.00
2013-7-13,87,78,64,58,51,46,81,42,25,0.00,40.00,14,7,22,0.00
2013-7-14,89,78,67,52,45,37,56,33,20,0.00,40.00,13,6,21,0.00
2013-7-15,88,78,69,49,39,30,48,26,17,0.00,40.00,21,10,30,0.00
2013-7-16,84,76,68,40,27,19,27,17,10,0.00,40.00,15,12,23,0.00
2013-7-17,90,83,71,38,23,3,30,13,5,0.00,40.00,12,8,19,0.00
2013-7-18,91,83,71,49,33,20,45,19,8,0.00,40.00,14,7,20,0.00
2013-7-19,91,83,70,49,36,25,47,21,12,0.00,40.00,12,6,19,0.00
2013-7-20,83,73,69,65,58,-100,85,61,46,0.00,40.00,18,8,27,0.00
2013-7-21,75,70,65,65,63,54,96,79,53,0.00,40.00,15,7,20,0.00
2013-7-22,76,69,65,68,62,58,94,77,58,0.00,40.00,12,6,19,0.00
2013-7-23,82,72,64,61,58,52,86,63,42,0.00,40.00,14,7,24,0.00
2013-7-24,87,74,62,59,55,51,84,55,33,0.00,40.00,15,7,23,0.00
2013-7-25,89,79,69,55,48,39,60,35,20,0.00,40.00,13,7,19,0.00
2013-11-13,72,68,63,31,25,18,30,20,15,0.00,40.00,19,17,27,0.00
2013-11-14,74,68,63,29,23,16,27,19,13,0.00,40.00,16,13,22,0.00
2013-11-15,49,46,43,44,43,43,100,89,80,0.00,40.00,14,12,22,0.00
2013-11-16,45,35,42,44,13,-100,100,74,77,0.00,40.00,11,8,16,0.00
2013-11-17,57,46,40,40,38,36,95,77,46,0.00,40.00,10,5,15,0.00
2013-11-18,61,55,45,45,43,40,100,70,46,0.00,40.00,8,7,12,0.00
2013-11-19,51,46,43,45,44,43,100,91,74,0.00,40.00,13,9,18,0.00
2013-11-20,53,46,43,47,44,43,100,96,68,0.00,40.00,10,6,19,0.00
2013-12-26,54,51,50,3,2,1,14,13,12,0.00,40.00,32,26,42,0.00
2013-12-27,59,55,51,5,2,-2,11,11,11,0.00,40.00,11,10,16,0.00
2013-12-28,59,39,57,8,-28,-100,14,9,13,0.00,40.00,7,5,12,0.00
2013-12-31,61,58,55,8,8,8,15,14,12,0.00,40.00,7,5,13,0.00
2014-1-1,61,57,53,16,7,2,20,14,10,0.00,40.00,26,18,34,0.00